Regional Weather Roundup
Issued by NWS Huntsville, AL

Home | Current Version | Previous Version | Text Only | Print | Product List | Glossary On
Versions: 1 2 3 4 5 6 7 8 9 10 11 12 13 14 15 16 17 18 19 20 21 22 23 24 25 26 27 28 29 30 31 32 33 34 35 36 37 38 39 40 41 42 43 44 45 46 47 48 49 50
000
ASUS44 KHUN 300710
RWRHUN

WEATHER ROUNDUP FOR THE TENNESSEE VALLEY
NATIONAL WEATHER SERVICE HUNTSVILLE AL
200 AM CDT SUN AUG 30 2015

ALZ001>004-300800-
NORTHWEST ALABAMA

CITY           SKY/WX    TMP DP  RH WIND       PRES   REMARKS
SHOALS AIRPORT PTCLDY    68  65  90 CALM      30.10S
SHOALS TVA RES   N/A     68 N/A N/A MISG        N/A
$$

ALZ005>007-016-300800-
NORTH CENTRAL ALABAMA

CITY           SKY/WX    TMP DP  RH WIND       PRES   REMARKS
DECATUR AP     CLOUDY    69  68  96 CALM      30.10S
HUNTSVILLE AP  CLOUDY    72  68  87 CALM      30.09F
HUN NWS/UAH      N/A     70  67  89 E1          N/A
MERIDIANVILLE  CLOUDY    70  64  83 SE3       30.10F
REDSTONE ARSN  CLOUDY    69  67  95 E2        30.09F
VINEMONT AP    DRIZZLE   68  66  94 CALM      30.12S
$$

ALZ008>010-300800-
NORTHEAST ALABAMA

CITY           SKY/WX    TMP DP  RH WIND       PRES   REMARKS
ALBERTVILLE    CLOUDY    68  68 100 CALM      30.10F
FORT PAYNE     LGT RAIN  68  64  88 CALM      30.11F
SCOTTSBORO AP  FOG       68  68 100 CALM      30.12F VSB 1/2
SCOTTSBORO HCN   N/A     68 N/A N/A MISG        N/A
VALLEY HEAD      N/A     68 N/A N/A MISG        N/A
$$

TNZ076-096-097-300800-
SOUTHEASTERN MIDDLE TENNESSEE

CITY           SKY/WX    TMP DP  RH WIND       PRES   REMARKS
TULLAHOMA      CLOUDY    70  66  88 CALM      30.13S
WINCHESTER     CLOUDY    70  66  88 E3        30.12S
$$

...SURROUNDING SITES...

CITY           SKY/WX    TMP DP  RH WIND       PRES   REMARKS
ATLANTA        CLOUDY    73  63  70 SE3       30.11F
ANNISTON       CLOUDY    72  69  90 NE3       30.10F
BIRMINGHAM     CLOUDY    71  69  93 N5        30.10F
CHATTANOOGA    CLOUDY    72  69  90 CALM      30.12F
DALTON         CLOUDY    70  68  94 CALM      30.12S
GADSDEN        CLOUDY    70  64  83 CALM      30.09F
GOLDEN TRNGL   CLOUDY    72  64  78 SE10      30.05F
HALEYVILLE     FAIR      68  68 100 CALM      30.12S
JACKSON TN     CLOUDY    74  67  78 S6        30.05F
MEMPHIS        CLOUDY    78  70  76 S9        30.02F
NASHVILLE      PTCLDY    70  66  87 CALM      30.10S
OXFORD MS      FAIR      70  66  88 SE10      30.06S
ROME           CLOUDY    71  68  90 CALM      30.11S
SAVANNAH       CLEAR     66  32  28 CALM      30.07F
TUPELO         PTCLDY    71  67  87 SE6       30.05F
TUSCALOOSA     CLOUDY    73  70  90 E5        30.07F
$$

...GULF COAST WEATHER...

CITY           SKY/WX    TMP DP  RH WIND       PRES   REMARKS
GULFPORT       PTCLDY    72  68  87 CALM      30.01F
PASCAGOULA     PTCLDY    69  69 100 CALM      30.02F
MOBILE         CLEAR     73  71  93 CALM      30.04F
GULF SHORES    MOSUNNY   75  73  93 NE7       30.02F
PENSACOLA      PTCLDY    75  71  87 NE6       30.02F
DESTIN         CLEAR     74  71  91 E3        30.03F
PANAMA CITY    PTCLDY    72  72 100 NE3       30.02F
APPALACHICOLA  CLEAR     71  71 100 NE6       30.01F
$$




USA.gov is the U.S. government's official web portal to all federal, state and local government web resources and services.